Wind_Speed
6 6 6 6 7 7 7 7 7 7 8 10 11 11 12 13 13 13 13 13 13 13 13 13 12 11 11 11 11 11 10 10 9 9 9 9 10 10 12 12 13 13 14
8 7 7 7 7 7 8 7 8 8 10 11 12 12 12 13 14 13 14 14 14 13 13 13 12 12 12 12 12 12 11 11 10 10 10 10 11 12 12 13 13 14 14
9 8 8 8 8 8 8 8 9 10 10 11 12 13 13 14 14 14 14 14 14 13 13 14 13 13 13 13 13 13 12 12 12 12 11 12 12 12 13 14 14 14 15
10 9 9 9 9 9 9 9 10 11 11 12 13 13 14 14 15 15 15 15 15 14 15 15 14 14 14 14 14 14 13 13 13 13 13 13 13 13 13 14 15 16 17
11 11 10 10 10 10 10 11 11 12 13 13 14 14 15 15 16 16 16 16 15 15 15 15 15 15 15 15 15 15 15 14 14 14 15 15 15 15 15 16 16 17 17
12 12 11 11 11 11 11 12 12 13 14 14 15 15 16 17 17 17 17 16 16 16 16 16 16 16 16 17 17 17 16 16 16 16 16 16 17 17 17 17 18 18 19
13 13 12 12 13 12 13 13 13 14 15 15 16 17 17 18 18 18 18 17 17 17 17 17 17 17 18 18 18 18 18 18 18 18 18 18 19 19 19 20 20 21 21
14 14 14 14 14 14 14 15 15 15 16 17 18 18 18 19 20 20 20 19 19 19 18 18 19 19 19 20 20 19 19 20 20 21 21 21 21 22 23 23 24 24 24
15 15 15 16 16 16 16 16 16 17 17 18 19 20 20 21 21 21 21 20 20 20 21 21 21 21 22 22 22 22 22 23 23 23 23 24 24 25 25 26 26 26 27
16 17 17 18 18 18 18 18 18 19 19 20 21 22 22 23 23 23 22 22 22 23 23 23 24 24 24 24 25 25 25 26 26 26 27 27 27 28 29 29 30 30 30
18 19 19 19 19 20 20 20 21 21 22 22 23 23 24 24 25 25 24 25 25 25 25 26 26 26 27 27 28 28 28 29 29 30 29 30 30 31 32 32 33 33 33
20 20 21 21 21 22 22 22 23 23 24 25 25 26 26 26 27 27 27 27 27 28 28 29 29 30 30 30 30 31 31 32 33 33 33 33 33 34 35 35 35 35 36
22 22 22 23 23 23 24 24 25 26 26 27 27 28 28 29 29 29 29 30 30 31 31 32 32 32 33 33 33 34 35 35 36 36 36 36 36 36 36 36 36 36 37
23 24 24 25 25 25 25 26 27 28 28 29 29 30 30 31 31 32 32 33 33 34 35 35 36 36 36 36 36 37 38 38 38 38 38 38 38 37 38 38 37 37 38
25 25 26 26 27 27 27 28 29 30 30 30 31 32 32 33 33 34 35 35 36 37 37 38 38 38 38 39 40 40 39 39 39 39 39 39 39 39 39 39 38 38 38
27 27 27 28 28 28 29 30 31 31 32 32 33 34 34 35 35 36 37 37 38 39 39 39 40 40 41 41 41 40 40 40 40 40 40 40 40 39 39 38 38 37 37
28 28 29 29 29 30 31 31 32 32 33 34 35 35 36 36 37 38 39 39 40 41 41 41 41 42 42 42 42 41 41 41 41 41 40 40 40 39 39 38 37 37 37
30 30 30 31 31 32 32 33 34 34 35 36 37 37 38 39 39 40 41 41 41 42 42 43 43 43 43 43 43 43 42 42 41 41 41 40 40 40 39 38 38 37 37
31 31 32 33 33 33 34 35 36 37 37 38 38 38 39 40 41 41 42 42 43 43 43 43 44 43 43 44 44 43 42 42 41 41 41 40 40 40 39 38 38 37 36
33 34 34 34 35 36 37 37 38 39 39 39 39 40 40 41 42 42 42 43 43 44 44 44 44 44 44 44 43 42 41 41 40 40 40 40 40 40 39 39 38 37 37
34 35 35 36 37 38 39 39 39 40 40 41 41 41 42 42 43 43 44 44 45 45 45 45 45 44 44 43 43 42 41 41 42 41 41 40 40 40 40 39 38 37 37
36 36 37 38 38 39 39 39 40 40 41 42 42 42 43 44 45 45 46 46 47 47 47 46 45 44 44 44 43 43 43 43 43 42 41 41 40 40 39 39 39 38 37
37 38 39 39 39 40 40 40 40 41 42 42 43 43 44 45 46 47 47 48 49 48 48 47 46 45 45 45 45 45 45 44 43 42 40 40 40 39 38 38 38 38 37
40 40 40 41 41 41 41 41 42 42 43 44 45 46 46 47 48 48 49 49 49 48 47 46 46 46 46 46 46 46 46 45 44 43 41 41 40 40 38 38 38 38 37
41 42 42 42 42 42 43 44 44 45 45 46 47 47 48 48 49 49 49 48 48 47 46 46 46 46 46 46 46 46 45 45 44 43 41 41 40 39 38 37 37 37 37
43 43 43 43 44 44 45 45 46 46 47 47 48 48 49 49 49 49 48 47 47 47 47 46 46 46 46 46 46 46 45 44 44 43 41 40 39 38 38 38 38 37 37
Wind_Direction
262 271 277 281 284 287 295 304 310 318 326 331 334 338 340 341 343 345 345 343 343 342 341 339 337 336 334 330 325 322 317 313 311 306 304 297 290 279 275 262 255 252 251
263 270 275 280 282 287 293 301 307 315 322 328 332 334 336 338 339 340 340 340 340 340 340 339 336 334 331 329 325 321 316 312 311 308 304 298 291 285 278 272 266 258 255
265 269 273 278 281 284 290 297 303 310 317 323 328 330 332 334 335 337 337 337 338 338 337 335 333 331 328 326 322 318 313 308 305 303 301 296 293 288 281 275 271 268 265
263 268 273 276 279 283 288 295 300 306 313 318 322 326 329 331 332 333 333 332 331 331 331 330 330 329 328 325 323 319 314 310 304 300 299 297 295 290 284 279 274 271 270
262 266 271 272 277 283 288 293 298 304 309 313 317 320 324 326 327 328 330 329 328 327 328 328 328 328 327 326 324 320 315 309 303 299 298 297 294 291 285 281 277 273 270
261 266 268 270 276 281 286 291 295 300 305 309 312 315 319 321 322 324 324 324 325 325 326 326 326 326 325 325 324 321 316 311 307 301 299 297 292 288 286 283 280 276 273
263 266 269 272 276 279 284 289 293 297 301 305 309 312 314 317 318 319 321 321 322 322 322 323 324 324 324 324 322 319 316 311 308 305 302 298 295 289 286 285 282 280 278
265 268 272 274 276 280 284 288 292 296 299 302 306 309 311 313 314 315 315 315 316 317 318 318 319 320 321 320 319 316 313 309 306 304 302 299 296 292 288 285 282 280 278
267 269 272 275 277 280 283 286 290 294 297 301 304 307 308 310 311 312 311 312 312 312 313 313 313 314 315 314 314 313 310 308 306 302 300 298 296 293 290 286 283 281 279
268 269 272 276 277 280 282 285 289 293 296 300 302 304 306 308 309 309 308 309 309 309 309 309 309 310 310 310 309 309 308 306 305 302 299 297 294 293 291 288 284 282 280
269 270 273 275 277 278 281 284 288 292 295 299 301 302 304 305 305 305 305 306 307 307 307 307 306 306 306 306 305 305 304 303 302 302 299 296 293 292 290 289 286 283 280
271 273 275 276 276 278 280 284 286 290 294 297 299 300 302 303 303 303 303 303 304 305 305 305 304 303 303 303 303 302 302 301 301 300 298 296 293 291 289 287 285 283 281
273 274 276 277 278 279 281 284 287 290 293 295 297 299 300 301 301 301 302 302 302 303 303 303 302 301 302 302 302 302 301 300 299 298 296 295 294 292 290 288 286 284 282
273 275 277 278 279 280 282 285 288 290 292 294 296 297 298 299 299 300 301 301 302 302 302 302 301 301 301 301 302 302 301 300 298 297 295 294 293 291 289 287 285 283 281
275 277 278 278 280 281 284 287 289 291 292 293 295 297 298 298 298 299 300 300 301 302 301 301 301 301 301 301 301 300 299 299 298 297 296 294 293 292 290 287 285 283 282
277 279 280 281 281 283 286 288 289 290 292 293 295 296 297 297 297 298 299 300 300 301 301 301 300 300 300 300 300 299 299 299 298 298 297 295 293 292 291 289 286 284 283
279 280 281 282 283 285 288 289 290 291 293 294 296 296 296 297 297 298 298 299 300 301 301 301 301 301 300 300 299 299 299 299 298 298 297 295 294 292 291 289 287 285 284
279 280 281 282 284 286 288 289 290 291 293 294 295 296 296 297 297 298 298 299 300 301 301 301 301 301 300 300 300 299 299 299 298 297 296 295 294 293 290 288 286 285 284
279 280 280 281 283 285 287 289 291 292 293 294 295 295 295 296 297 298 299 299 300 301 301 302 302 301 301 301 301 300 299 298 297 296 295 294 293 291 288 287 286 284 283
278 279 281 282 284 285 287 289 291 292 293 294 295 295 295 296 297 297 298 299 300 301 301 302 302 301 301 301 301 300 299 299 298 296 294 293 292 290 288 287 285 284 283
278 279 280 283 285 286 288 290 291 292 293 293 295 295 296 296 297 297 298 299 300 300 300 301 301 301 301 301 300 299 298 300 300 297 295 293 292 291 288 286 283 283 283
278 279 281 283 286 287 289 290 291 292 293 293 294 295 296 296 296 297 298 298 299 299 299 300 300 300 300 300 300 299 298 298 298 296 294 292 292 291 288 285 283 283 283
280 281 283 284 285 287 288 289 291 292 293 294 294 294 295 296 296 297 297 298 298 298 298 297 297 298 298 298 299 299 298 297 297 296 293 292 291 290 288 286 285 284 283
281 282 284 284 285 286 288 289 290 292 293 294 295 295 295 296 296 297 297 297 297 297 297 296 296 297 297 297 297 298 297 296 295 295 293 292 291 290 288 286 285 283 283
281 282 283 284 285 286 287 288 290 291 292 293 294 295 296 296 297 297 297 297 296 296 296 296 297 296 296 296 296 297 296 294 294 294 292 290 290 289 287 285 285 283 282
280 281 282 283 284 285 287 288 289 291 292 293 295 295 296 296 297 297 297 296 296 296 297 297 296 296 296 296 296 296 295 293 293 292 290 289 288 287 286 284 284 282 281
Height
5872 5873 5873 5873 5873 5873 5873 5873 5872 5871 5870 5869 5867 5866 5864 5862 5859 5857 5855 5853 5850 5848 5846 5844 5842 5840 5838 5836 5835 5834 5833 5832 5832 5831 5831 5832 5832 5832 5833 5834 5836 5837 5839
5871 5871 5872 5872 5872 5872 5872 5871 5870 5870 5868 5867 5866 5864 5862 5860 5858 5856 5853 5851 5849 5847 5844 5842 5840 5838 5836 5835 5833 5832 5831 5830 5830 5830 5829 5829 5830 5830 5830 5831 5832 5833 5835
5869 5870 5870 5870 5870 5870 5870 5869 5869 5868 5867 5865 5864 5862 5860 5858 5856 5854 5852 5849 5847 5845 5843 5840 5838 5836 5834 5833 5831 5829 5828 5828 5827 5827 5827 5827 5827 5827 5827 5827 5828 5829 5830
5867 5868 5868 5868 5868 5868 5868 5867 5867 5866 5865 5863 5862 5860 5858 5856 5854 5852 5849 5847 5845 5843 5840 5838 5836 5834 5832 5830 5828 5827 5825 5824 5824 5824 5824 5823 5823 5823 5824 5824 5824 5825 5826
5865 5865 5865 5866 5866 5866 5866 5865 5864 5863 5862 5861 5860 5858 5856 5854 5851 5849 5847 5845 5842 5840 5838 5836 5833 5831 5829 5827 5825 5823 5822 5821 5821 5820 5820 5819 5819 5819 5819 5820 5820 5821 5821
5862 5862 5863 5863 5863 5863 5863 5862 5862 5861 5860 5858 5857 5855 5853 5851 5849 5846 5844 5842 5839 5837 5835 5833 5830 5828 5826 5824 5822 5820 5818 5817 5817 5816 5816 5815 5815 5815 5815 5815 5815 5815 5816
5859 5859 5860 5860 5860 5860 5860 5859 5859 5858 5856 5855 5854 5852 5850 5848 5845 5843 5841 5839 5836 5834 5832 5830 5827 5825 5823 5820 5818 5816 5815 5813 5812 5812 5811 5810 5810 5810 5809 5809 5809 5809 5809
5856 5856 5856 5857 5857 5857 5856 5856 5855 5854 5853 5851 5850 5848 5846 5844 5842 5839 5837 5835 5833 5830 5828 5826 5824 5821 5819 5817 5815 5813 5811 5809 5808 5806 5805 5804 5804 5803 5803 5802 5802 5802 5802
5852 5852 5853 5853 5853 5853 5852 5851 5851 5850 5849 5847 5846 5844 5842 5840 5837 5835 5833 5830 5828 5826 5824 5821 5819 5817 5815 5812 5810 5808 5806 5805 5803 5801 5799 5798 5797 5796 5795 5794 5794 5794 5794
5848 5848 5848 5848 5848 5848 5847 5847 5846 5845 5844 5843 5841 5839 5837 5835 5832 5830 5828 5826 5824 5821 5819 5816 5814 5811 5809 5807 5804 5802 5801 5799 5796 5794 5792 5791 5789 5788 5786 5785 5784 5784 5784
5843 5843 5843 5843 5843 5843 5842 5842 5841 5840 5838 5837 5836 5834 5831 5829 5827 5824 5822 5820 5818 5815 5813 5810 5808 5805 5803 5800 5797 5795 5793 5791 5789 5787 5784 5782 5781 5779 5777 5775 5774 5773 5772
5838 5838 5838 5838 5838 5837 5837 5836 5835 5834 5832 5831 5829 5827 5825 5823 5820 5818 5816 5813 5811 5808 5806 5803 5801 5798 5795 5792 5790 5787 5784 5782 5779 5777 5775 5773 5771 5769 5767 5764 5763 5761 5760
5832 5832 5832 5832 5831 5831 5830 5830 5828 5827 5826 5824 5822 5820 5818 5816 5813 5811 5808 5806 5803 5801 5798 5795 5792 5789 5786 5784 5781 5777 5774 5771 5769 5766 5764 5761 5759 5757 5754 5753 5751 5750 5749
5826 5826 5825 5825 5825 5824 5823 5822 5821 5820 5818 5816 5814 5812 5810 5808 5805 5802 5800 5797 5795 5792 5789 5786 5782 5779 5776 5773 5770 5767 5763 5760 5756 5754 5751 5749 5746 5744 5741 5740 5738 5737 5736
5819 5819 5818 5818 5817 5816 5816 5814 5813 5811 5809 5808 5806 5803 5801 5799 5796 5793 5790 5788 5785 5782 5779 5776 5772 5769 5766 5762 5759 5755 5751 5748 5744 5741 5738 5736 5733 5731 5728 5726 5724 5723 5722
5812 5811 5811 5810 5809 5808 5807 5806 5804 5803 5801 5799 5797 5794 5792 5789 5786 5784 5781 5778 5774 5771 5768 5764 5761 5757 5754 5750 5746 5743 5739 5735 5732 5729 5725 5722 5720 5717 5715 5713 5711 5709 5708
5804 5803 5803 5802 5801 5800 5799 5797 5796 5794 5792 5789 5787 5784 5782 5779 5776 5773 5770 5767 5764 5760 5756 5753 5749 5745 5741 5737 5733 5730 5727 5723 5719 5716 5712 5709 5706 5704 5702 5700 5698 5696 5695
5795 5795 5794 5793 5792 5791 5790 5788 5786 5785 5783 5780 5777 5774 5771 5768 5766 5762 5759 5756 5753 5749 5745 5741 5737 5732 5728 5724 5720 5717 5714 5710 5706 5703 5699 5696 5693 5691 5688 5687 5685 5684 5683
5787 5786 5785 5784 5782 5781 5780 5778 5776 5774 5772 5770 5767 5764 5761 5758 5755 5751 5748 5744 5741 5737 5733 5728 5724 5720 5715 5711 5707 5704 5700 5697 5693 5689 5686 5683 5680 5677 5675 5674 5672 5670 5669
5777 5776 5775 5774 5772 5771 5769 5767 5765 5763 5761 5758 5755 5753 5750 5746 5743 5740 5736 5732 5728 5724 5720 5716 5711 5707 5703 5698 5694 5690 5687 5683 5679 5676 5673 5670 5668 5665 5663 5660 5659 5658 5657
5767 5766 5764 5763 5762 5760 5758 5756 5754 5751 5749 5746 5744 5741 5737 5734 5731 5728 5724 5720 5716 5712 5708 5703 5699 5695 5690 5686 5681 5678 5674 5670 5666 5663 5660 5657 5655 5652 5650 5647 5646 5645 5644
5756 5755 5754 5752 5750 5748 5746 5744 5742 5739 5737 5734 5732 5729 5725 5722 5718 5715 5711 5707 5703 5699 5694 5690 5686 5682 5677 5673 5669 5665 5661 5657 5653 5650 5647 5644 5642 5639 5636 5634 5633 5632 5631
5744 5743 5742 5740 5739 5737 5735 5732 5730 5727 5725 5722 5719 5716 5713 5709 5705 5701 5698 5693 5689 5685 5681 5676 5672 5669 5664 5660 5656 5651 5648 5644 5641 5637 5634 5631 5629 5626 5624 5622 5620 5619 5618
5733 5731 5730 5728 5726 5725 5723 5720 5718 5715 5712 5709 5706 5702 5699 5695 5691 5687 5683 5679 5675 5670 5666 5662 5658 5655 5651 5646 5642 5638 5634 5630 5627 5623 5621 5618 5616 5613 5611 5609 5607 5606 5605
5720 5719 5717 5716 5714 5712 5710 5708 5705 5702 5699 5696 5692 5689 5685 5681 5677 5673 5668 5664 5660 5656 5652 5648 5644 5640 5636 5632 5628 5624 5620 5617 5613 5610 5607 5604 5602 5600 5598 5596 5595 5593 5592
5707 5706 5704 5703 5701 5699 5697 5694 5691 5688 5685 5682 5678 5675 5670 5666 5662 5658 5654 5650 5646 5642 5638 5634 5630 5626 5622 5618 5614 5610 5606 5603 5599 5596 5593 5591 5589 5587 5585 5583 5582 5580 5579